| time (UTC) | temp F | wind direction | speed MPH | gust MPH | rain 1hr in | rain 24hr in | rain mn in | humidity % | barometer mb |
| 20260507012337 | 59 | 68 | 3.0 | 4.0 | 0.00 | 0.00 | 0.00 | 62 | 1016.3 |
| 20260507011337 | 59 | 45 | 4.0 | 6.0 | 0.00 | 0.00 | 0.00 | 60 | 1016.3 |
| 20260507010338 | 60 | 68 | 4.0 | 6.0 | 0.00 | 0.00 | 0.00 | 60 | 1016.3 |
| 20260507005337 | 60 | 68 | 4.0 | 5.0 | 0.00 | 0.00 | 0.00 | 59 | 1016.2 |
| 20260507004317 | 60 | 68 | 3.0 | 5.0 | 0.00 | 0.00 | 0.00 | 58 | 1016.2 |
| 20260507003358 | 60 | 68 | 2.0 | 3.0 | 0.00 | 0.00 | 0.00 | 58 | 1016.0 |
| 20260507002317 | 61 | 68 | 4.0 | 6.0 | 0.00 | 0.00 | 0.00 | 57 | 1015.8 |
| 20260507001337 | 61 | 68 | 3.0 | 5.0 | 0.00 | 0.00 | 0.00 | 56 | 1015.8 |
| 20260507000317 | 62 | 68 | 5.0 | 8.0 | 0.00 | 0.00 | 0.00 | 53 | 1015.8 |
| 20260506235338 | 62 | 23 | 7.0 | 11.0 | 0.00 | 0.00 | 0.00 | 54 | 1015.7 |
| 20260506234317 | 62 | 68 | 3.0 | 5.0 | 0.00 | 0.00 | 0.00 | 54 | 1015.5 |
| 20260506233317 | 62 | 68 | 6.0 | 10.0 | 0.00 | 0.00 | 0.00 | 54 | 1015.6 |
| 20260506232318 | 63 | 68 | 6.0 | 11.0 | 0.00 | 0.00 | 0.00 | 52 | 1015.5 |
| 20260506231317 | 62 | 45 | 4.0 | 5.0 | 0.00 | 0.00 | 0.00 | 56 | 1015.6 |
| 20260506230338 | 62 | 68 | 8.0 | 10.0 | 0.00 | 0.00 | 0.00 | 54 | 1015.5 |
| 20260506225337 | 62 | 23 | 7.0 | 12.0 | 0.00 | 0.00 | 0.00 | 55 | 1015.4 |
| 20260506224317 | 63 | 23 | 5.0 | 9.0 | 0.00 | 0.00 | 0.00 | 54 | 1015.3 |
| 20260506223316 | 63 | 45 | 5.0 | 11.0 | 0.00 | 0.00 | 0.00 | 55 | 1015.3 |
| 20260506222316 | 62 | 45 | 7.0 | 11.0 | 0.00 | 0.00 | 0.00 | 54 | 1015.2 |
| 20260506221317 | 61 | 45 | 4.0 | 6.0 | 0.00 | 0.00 | 0.00 | 55 | 1015.1 |
| 20260506220317 | 63 | 23 | 6.0 | 9.0 | 0.00 | 0.00 | 0.00 | 54 | 1015.1 |
| 20260506215317 | 62 | 45 | 9.0 | 12.0 | 0.00 | 0.00 | 0.00 | 56 | 1015.0 |
| 20260506214316 | 61 | 23 | 5.0 | 8.0 | 0.00 | 0.00 | 0.00 | 55 | 1015.0 |
| 20260506213316 | 63 | 68 | 9.0 | 13.0 | 0.00 | 0.00 | 0.00 | 52 | 1015.0 |
| 20260506212317 | 63 | 0 | 6.0 | 10.0 | 0.00 | 0.00 | 0.00 | 55 | 1015.2 |
| 20260506211337 | 63 | 0 | 10.0 | 17.0 | 0.00 | 0.00 | 0.00 | 55 | 1015.2 |
| 20260506210317 | 62 | 338 | 10.0 | 13.0 | 0.00 | 0.00 | 0.00 | 53 | 1015.1 |
| 20260506205317 | 63 | 45 | 9.0 | 13.0 | 0.00 | 0.00 | 0.00 | 53 | 1015.1 |
| 20260506204316 | 63 | 23 | 7.0 | 9.0 | 0.00 | 0.00 | 0.00 | 57 | 1015.1 |
| 20260506203316 | 63 | 0 | 8.0 | 14.0 | 0.00 | 0.00 | 0.00 | 54 | 1015.1 |
| 20260506202316 | 62 | 338 | 13.0 | 18.0 | 0.00 | 0.00 | 0.00 | 55 | 1015.3 |
| 20260506201336 | 63 | 23 | 10.0 | 12.0 | 0.00 | 0.00 | 0.00 | 53 | 1015.3 |
| 20260506200316 | 62 | 0 | 10.0 | 12.0 | 0.00 | 0.00 | 0.00 | 54 | 1015.3 |
| 20260506195317 | 63 | 45 | 8.0 | 11.0 | 0.00 | 0.00 | 0.00 | 53 | 1015.5 |
| 20260506194317 | 63 | 68 | 9.0 | 13.0 | 0.00 | 0.00 | 0.00 | 52 | 1015.5 |
| 20260506193316 | 62 | 45 | 9.0 | 14.0 | 0.00 | 0.00 | 0.00 | 56 | 1015.5 |
| 20260506192316 | 62 | 45 | 5.0 | 9.0 | 0.00 | 0.00 | 0.00 | 53 | 1015.6 |
| 20260506191316 | 62 | 68 | 10.0 | 13.0 | 0.00 | 0.00 | 0.00 | 53 | 1015.7 |
| 20260506190336 | 61 | 68 | 7.0 | 9.0 | 0.00 | 0.00 | 0.00 | 55 | 1015.7 |
| 20260506185316 | 61 | 0 | 6.0 | 11.0 | 0.00 | 0.00 | 0.00 | 57 | 1015.8 |
| 20260506184316 | 60 | 68 | 9.0 | 12.0 | 0.00 | 0.00 | 0.00 | 56 | 1016.1 |
| 20260506183316 | 60 | 68 | 11.0 | 14.0 | 0.00 | 0.00 | 0.00 | 56 | 1016.3 |
| 20260506182316 | 58 | 68 | 10.0 | 14.0 | 0.00 | 0.00 | 0.00 | 58 | 1016.3 |
| 20260506181316 | 58 | 45 | 10.0 | 12.0 | 0.00 | 0.00 | 0.00 | 59 | 1016.6 |
| 20260506180316 | 58 | 90 | 10.0 | 13.0 | 0.00 | 0.00 | 0.00 | 59 | 1016.8 |
| 20260506175316 | 57 | 45 | 6.0 | 11.0 | 0.00 | 0.00 | 0.00 | 61 | 1016.7 |
| 20260506174316 | 57 | 68 | 10.0 | 16.0 | 0.00 | 0.00 | 0.00 | 62 | 1017.1 |
| 20260506173316 | 56 | 45 | 8.0 | 12.0 | 0.00 | 0.00 | 0.00 | 65 | 1016.9 |
| 20260506172316 | 56 | 68 | 7.0 | 13.0 | 0.00 | 0.00 | 0.00 | 65 | 1016.8 |
| 20260506171316 | 56 | 68 | 9.0 | 14.0 | 0.00 | 0.00 | 0.00 | 62 | 1017.1 |
| 20260506170336 | 56 | 45 | 5.0 | 10.0 | 0.00 | 0.00 | 0.00 | 64 | 1017.2 |
| 20260506165316 | 57 | 45 | 7.0 | 14.0 | 0.00 | 0.00 | 0.00 | 64 | 1017.1 |
| 20260506164336 | 56 | 45 | 8.0 | 11.0 | 0.00 | 0.00 | 0.00 | 65 | 1016.9 |
| 20260506163316 | 55 | 0 | 6.0 | 9.0 | 0.00 | 0.00 | 0.00 | 64 | 1017.0 |
| 20260506162316 | 56 | 45 | 10.0 | 15.0 | 0.00 | 0.00 | 0.00 | 63 | 1017.2 |
| 20260506161316 | 56 | 45 | 7.0 | 13.0 | 0.00 | 0.00 | 0.00 | 64 | 1017.1 |
| 20260506160315 | 55 | 23 | 8.0 | 12.0 | 0.00 | 0.00 | 0.00 | 65 | 1017.0 |
| 20260506155316 | 54 | 68 | 9.0 | 13.0 | 0.00 | 0.00 | 0.00 | 67 | 1016.8 |
| 20260506154316 | 54 | 68 | 9.0 | 13.0 | 0.00 | 0.00 | 0.00 | 67 | 1016.8 |
| 20260506153336 | 53 | 45 | 12.0 | 18.0 | 0.00 | 0.00 | 0.00 | 68 | 1016.6 |
| 20260506152316 | 53 | 68 | 12.0 | 18.0 | 0.00 | 0.00 | 0.00 | 69 | 1016.5 |
| 20260506151316 | 53 | 68 | 10.0 | 13.0 | 0.00 | 0.00 | 0.00 | 70 | 1016.4 |
| 20260506150315 | 52 | 68 | 9.0 | 12.0 | 0.00 | 0.00 | 0.00 | 74 | 1016.2 |
| 20260506145315 | 51 | 45 | 9.0 | 13.0 | 0.00 | 0.00 | 0.00 | 74 | 1015.7 |
| 20260506144315 | 50 | 45 | 8.0 | 12.0 | 0.00 | 0.00 | 0.00 | 75 | 1015.3 |
| 20260506143315 | 50 | 23 | 9.0 | 13.0 | 0.00 | 0.00 | 0.00 | 75 | 1015.3 |
| 20260506142315 | 50 | 23 | 10.0 | 14.0 | 0.00 | 0.00 | 0.00 | 76 | 1015.3 |
| 20260506141315 | 50 | 45 | 7.0 | 10.0 | 0.00 | 0.00 | 0.00 | 77 | 1015.4 |
| 20260506140315 | 49 | 45 | 8.0 | 13.0 | 0.00 | 0.00 | 0.00 | 77 | 1015.4 |
| 20260506135315 | 49 | 45 | 9.0 | 16.0 | 0.00 | 0.00 | 0.00 | 77 | 1015.3 |
| 20260506134315 | 48 | 23 | 9.0 | 14.0 | 0.00 | 0.00 | 0.00 | 78 | 1015.3 |
| 20260506133316 | 48 | 0 | 10.0 | 14.0 | 0.00 | 0.00 | 0.00 | 78 | 1015.5 |
| 20260506132315 | 48 | 0 | 7.0 | 11.0 | 0.00 | 0.00 | 0.00 | 78 | 1015.3 |
| 20260506131335 | 48 | 23 | 7.0 | 12.0 | 0.00 | 0.00 | 0.00 | 78 | 1015.3 |
| 20260506130315 | 48 | 23 | 9.0 | 13.0 | 0.00 | 0.00 | 0.00 | 79 | 1014.9 |
| 20260506125317 | 48 | 0 | 7.0 | 12.0 | 0.00 | 0.00 | 0.00 | 78 | 1014.7 |
| 20260506124337 | 47 | 45 | 7.0 | 10.0 | 0.00 | 0.00 | 0.00 | 78 | 1014.5 |
| 20260506123318 | 47 | 23 | 10.0 | 17.0 | 0.00 | 0.00 | 0.00 | 78 | 1014.2 |
| 20260506122317 | 47 | 45 | 6.0 | 9.0 | 0.00 | 0.00 | 0.00 | 77 | 1014.3 |
| 20260506121317 | 47 | 23 | 4.0 | 9.0 | 0.00 | 0.00 | 0.00 | 77 | 1014.2 |
| 20260506120317 | 48 | 45 | 6.0 | 10.0 | 0.00 | 0.00 | 0.00 | 77 | 1014.1 |
| 20260506115317 | 48 | 23 | 7.0 | 9.0 | 0.00 | 0.00 | 0.00 | 77 | 1014.0 |
| 20260506114317 | 47 | 23 | 4.0 | 6.0 | 0.00 | 0.00 | 0.00 | 77 | 1013.8 |
| 20260506113318 | 48 | 23 | 7.0 | 10.0 | 0.00 | 0.00 | 0.00 | 76 | 1013.5 |
| 20260506112317 | 48 | 45 | 6.0 | 11.0 | 0.00 | 0.00 | 0.00 | 76 | 1013.3 |
| 20260506111317 | 48 | 0 | 9.0 | 13.0 | 0.00 | 0.00 | 0.00 | 76 | 1013.8 |
| 20260506110317 | 48 | 23 | 7.0 | 10.0 | 0.00 | 0.00 | 0.00 | 76 | 1013.6 |
| 20260506105317 | 48 | 0 | 10.0 | 12.0 | 0.00 | 0.00 | 0.00 | 76 | 1013.8 |
| 20260506104317 | 48 | 0 | 13.0 | 18.0 | 0.00 | 0.00 | 0.00 | 75 | 1013.5 |
| 20260506103318 | 48 | 23 | 6.0 | 8.0 | 0.00 | 0.00 | 0.00 | 75 | 1013.5 |
| 20260506102317 | 48 | 23 | 6.0 | 9.0 | 0.00 | 0.00 | 0.00 | 75 | 1013.7 |
| 20260506101317 | 48 | 0 | 8.0 | 10.0 | 0.00 | 0.00 | 0.00 | 75 | 1013.9 |
| 20260506100357 | 48 | 0 | 7.0 | 11.0 | 0.00 | 0.00 | 0.00 | 75 | 1013.6 |
| 20260506095337 | 48 | 23 | 7.0 | 9.0 | 0.00 | 0.00 | 0.00 | 75 | 1013.5 |
| 20260506094317 | 48 | 0 | 7.0 | 10.0 | 0.00 | 0.00 | 0.00 | 75 | 1013.3 |
| 20260506093317 | 48 | 0 | 7.0 | 10.0 | 0.00 | 0.00 | 0.00 | 75 | 1013.3 |
| 20260506092317 | 48 | 23 | 8.0 | 13.0 | 0.00 | 0.00 | 0.00 | 75 | 1013.3 |
| 20260506091337 | 48 | 23 | 7.0 | 11.0 | 0.00 | 0.00 | 0.00 | 75 | 1013.2 |
| 20260506090336 | 49 | 23 | 5.0 | 9.0 | 0.00 | 0.00 | 0.00 | 74 | 1012.8 |
| 20260506085317 | 49 | 23 | 8.0 | 10.0 | 0.00 | 0.00 | 0.00 | 74 | 1012.7 |
| 20260506084317 | 48 | 0 | 5.0 | 8.0 | 0.00 | 0.00 | 0.00 | 74 | 1012.7 |
| 20260506083317 | 49 | 23 | 4.0 | 5.0 | 0.00 | 0.00 | 0.00 | 74 | 1012.4 |
| 20260506082316 | 48 | 23 | 5.0 | 9.0 | 0.00 | 0.00 | 0.00 | 73 | 1011.9 |
| 20260506081316 | 48 | 23 | 6.0 | 9.0 | 0.00 | 0.00 | 0.00 | 73 | 1011.6 |
| 20260506080336 | 48 | 0 | 5.0 | 8.0 | 0.00 | 0.00 | 0.00 | 73 | 1011.2 |
| 20260506073317 | 49 | 45 | 7.0 | 10.0 | 0.00 | 0.00 | 0.00 | 71 | 1010.8 |
| 20260506072316 | 49 | 23 | 7.0 | 10.0 | 0.00 | 0.00 | 0.00 | 69 | 1011.0 |
| 20260506071316 | 49 | 45 | 9.0 | 13.0 | 0.00 | 0.00 | 0.00 | 69 | 1011.3 |
| 20260506070317 | 49 | 68 | 8.0 | 11.0 | 0.00 | 0.00 | 0.00 | 68 | 1011.4 |
| 20260506062316 | 49 | 45 | 5.0 | 9.0 | 0.00 | 0.00 | 0.00 | 68 | 1011.3 |
| 20260506061316 | 49 | 23 | 5.0 | 8.0 | 0.00 | 0.00 | 0.00 | 69 | 1011.4 |
| 20260506060337 | 49 | 45 | 7.0 | 10.0 | 0.00 | 0.00 | 0.00 | 69 | 1011.0 |
| 20260506051316 | 49 | 45 | 6.0 | 9.0 | 0.00 | 0.00 | 0.00 | 78 | 1011.5 |
| 20260506050316 | 49 | 45 | 4.0 | 5.0 | 0.00 | 0.00 | 0.00 | 78 | 1011.6 |
| 20260506044316 | 49 | 45 | 7.0 | 10.0 | 0.00 | 0.00 | 0.00 | 78 | 1012.1 |
| 20260506043316 | 49 | 45 | 6.0 | 11.0 | 0.00 | 0.00 | 0.00 | 79 | 1011.9 |
| 20260506042336 | 49 | 0 | 6.0 | 11.0 | 0.00 | 0.00 | 0.00 | 80 | 1012.1 |
| 20260506041315 | 49 | 23 | 7.0 | 12.0 | 0.00 | 0.00 | 0.00 | 81 | 1011.9 |
| 20260506040316 | 49 | 23 | 5.0 | 10.0 | 0.00 | 0.00 | 0.00 | 82 | 1011.8 |
| 20260506035315 | 49 | 23 | 5.0 | 8.0 | 0.00 | 0.00 | 0.00 | 82 | 1011.8 |
| 20260506034315 | 49 | 23 | 5.0 | 10.0 | 0.00 | 0.00 | 0.00 | 83 | 1011.7 |
| 20260506033315 | 49 | 23 | 5.0 | 8.0 | 0.00 | 0.00 | 0.00 | 83 | 1011.6 |
| 20260506032315 | 49 | 45 | 5.0 | 8.0 | 0.00 | 0.00 | 0.00 | 82 | 1011.3 |
| 20260506031315 | 49 | 45 | 9.0 | 12.0 | 0.00 | 0.00 | 0.00 | 82 | 1010.9 |
| 20260506030315 | 49 | 23 | 6.0 | 14.0 | 0.00 | 0.00 | 0.00 | 82 | 1010.9 |
| 20260506025335 | 49 | 0 | 9.0 | 13.0 | 0.00 | 0.00 | 0.00 | 82 | 1010.8 |
| 20260506024315 | 49 | 0 | 8.0 | 11.0 | 0.00 | 0.00 | 0.00 | 82 | 1010.4 |
| 20260506023315 | 49 | 23 | 10.0 | 15.0 | 0.00 | 0.00 | 0.00 | 82 | 1010.1 |
| 20260506022315 | 49 | 0 | 9.0 | 13.0 | 0.00 | 0.00 | 0.00 | 82 | 1010.2 |
| 20260506021315 | 49 | 23 | 6.0 | 10.0 | 0.00 | 0.00 | 0.00 | 81 | 1010.1 |
| 20260506020315 | 50 | 23 | 9.0 | 13.0 | 0.00 | 0.00 | 0.00 | 80 | 1009.9 |
| 20260506015316 | 50 | 0 | 6.0 | 9.0 | 0.00 | 0.00 | 0.00 | 80 | 1009.6 |
| 20260506014317 | 50 | 23 | 5.0 | 8.0 | 0.00 | 0.00 | 0.00 | 79 | 1009.6 |
| 20260506013317 | 50 | 0 | 10.0 | 15.0 | 0.00 | 0.00 | 0.00 | 78 | 1009.8 |